N0312CM MUCC-KJZI

Flight info

Callsign N0312CM
Flight time 3h 10m
Altitude 18000
Route RESEB DCT URSUS Y297 TOVAR Q97 EBAYY Q93 WOPNR/N0237F190 Q93 ISUZO DCT SAV BAGGY3
Aircraft B58T/L-SDFGRY/C

Departure

Time 2026-04-28 02:12
Airport Jardines Del Rey Airport (MUCC)

Arrival

Time 2026-04-28 05:23
Airport Charleston Executive Airport (KJZI)
Time Latitude Longitude Altitude Speed Heading
2026-04-28 02:06 22.46443 -78.33006 12 ft 0 kts 270°
2026-04-28 02:09 22.46421 -78.33016 15 ft 9 kts 160°
2026-04-28 02:10 22.46331 -78.32983 15 ft 18 kts 163°
2026-04-28 02:10 22.46245 -78.32884 15 ft 22 kts 87°
2026-04-28 02:10 22.46226 -78.32714 14 ft 23 kts 78°
2026-04-28 02:10 22.46238 -78.32554 15 ft 22 kts 113°
2026-04-28 02:11 22.46257 -78.32376 14 ft 26 kts 72°
2026-04-28 02:11 22.46310 -78.32177 16 ft 28 kts 78°
2026-04-28 02:11 22.46361 -78.31968 17 ft 27 kts 70°
2026-04-28 02:11 22.46408 -78.31828 19 ft 16 kts 71°
2026-04-28 02:12 22.46450 -78.31735 19 ft 11 kts
2026-04-28 02:12 22.46386 -78.31950 17 ft 76 kts 251°
2026-04-28 02:12 22.46134 -78.32710 176 ft 122 kts 250°
2026-04-28 02:12 22.45838 -78.33608 693 ft 132 kts 252°
2026-04-28 02:13 22.45545 -78.34557 1205 ft 139 kts 252°
2026-04-28 02:13 22.45232 -78.35569 1713 ft 144 kts 251°
2026-04-28 02:13 22.44947 -78.36623 2214 ft 147 kts 266°
2026-04-28 02:13 22.45273 -78.37637 2708 ft 145 kts 313°
2026-04-28 02:14 22.46082 -78.38258 3204 ft 143 kts 332°
2026-04-28 02:14 22.46940 -78.38828 3692 ft 146 kts 329°
2026-04-28 02:14 22.47810 -78.39403 4186 ft 148 kts 329°
2026-04-28 02:14 22.48694 -78.39981 4680 ft 149 kts 329°
2026-04-28 02:15 22.50478 -78.41149 5655 ft 150 kts 328°
2026-04-28 02:15 22.51374 -78.41739 6148 ft 151 kts 328°
2026-04-28 02:15 22.52269 -78.42326 6631 ft 151 kts 328°
2026-04-28 02:16 22.53165 -78.42915 7098 ft 151 kts 327°
2026-04-28 02:16 22.54052 -78.43500 7567 ft 152 kts 327°
2026-04-28 02:16 22.54955 -78.44093 8049 ft 152 kts 327°
2026-04-28 02:16 22.55868 -78.44692 8469 ft 158 kts 327°
2026-04-28 02:17 22.56847 -78.45337 8729 ft 170 kts 327°
2026-04-28 02:17 22.57877 -78.46015 8989 ft 177 kts 327°
2026-04-28 02:17 22.58946 -78.46716 9258 ft 182 kts 327°
2026-04-28 02:17 22.60036 -78.47433 9522 ft 185 kts 327°
2026-04-28 02:18 22.61147 -78.48164 9787 ft 187 kts 327°
2026-04-28 02:18 22.62268 -78.48901 10037 ft 189 kts 327°
2026-04-28 02:18 22.63396 -78.49644 10275 ft 191 kts 327°
2026-04-28 02:18 22.64535 -78.50394 10508 ft 192 kts 327°
2026-04-28 02:19 22.65660 -78.51136 10739 ft 193 kts 327°
2026-04-28 02:19 22.66809 -78.51892 10980 ft 193 kts 327°
2026-04-28 02:19 22.67962 -78.52652 11218 ft 194 kts 327°
2026-04-28 02:19 22.69114 -78.53411 11457 ft 194 kts 327°
2026-04-28 02:20 22.70342 -78.54025 11696 ft 197 kts 345°
2026-04-28 02:20 22.71695 -78.54276 11944 ft 198 kts 348°
2026-04-28 02:20 22.73053 -78.54546 12189 ft 198 kts 347°
2026-04-28 02:20 22.74410 -78.54815 12434 ft 199 kts 347°
2026-04-28 02:21 22.75775 -78.55081 12687 ft 199 kts 347°
2026-04-28 02:21 22.77138 -78.55347 12938 ft 200 kts 347°
2026-04-28 02:21 22.78510 -78.55615 13194 ft 200 kts 347°
2026-04-28 02:21 22.79861 -78.55879 13444 ft 201 kts 347°
2026-04-28 02:22 22.81249 -78.56151 13703 ft 202 kts 347°
2026-04-28 02:22 22.82629 -78.56421 13951 ft 202 kts 347°
2026-04-28 02:22 22.84014 -78.56691 14177 ft 202 kts 347°
2026-04-28 02:22 22.85398 -78.56963 14408 ft 203 kts 347°
2026-04-28 02:23 22.86787 -78.57234 14634 ft 204 kts 347°
2026-04-28 02:23 22.88186 -78.57508 14870 ft 204 kts 347°
2026-04-28 02:23 22.89593 -78.57783 15105 ft 205 kts 347°
2026-04-28 02:23 22.90998 -78.58058 15342 ft 205 kts 348°
2026-04-28 02:24 22.92399 -78.58332 15578 ft 206 kts 348°
2026-04-28 02:24 22.93806 -78.58608 15817 ft 207 kts 348°
2026-04-28 02:24 22.95223 -78.58886 16060 ft 207 kts 348°
2026-04-28 02:24 22.96645 -78.59165 16304 ft 208 kts 348°
2026-04-28 02:25 22.98072 -78.59445 16548 ft 209 kts 348°
2026-04-28 02:25 22.99505 -78.59725 16795 ft 209 kts 348°
2026-04-28 02:25 23.00939 -78.60007 17048 ft 210 kts 348°
2026-04-28 02:25 23.02380 -78.60290 17300 ft 211 kts 348°
2026-04-28 02:26 23.03828 -78.60574 17554 ft 211 kts 348°
2026-04-28 02:26 23.05272 -78.60857 17797 ft 212 kts 348°
2026-04-28 02:26 23.06737 -78.61144 18003 ft 216 kts 348°
2026-04-28 02:26 23.08253 -78.61443 18018 ft 226 kts 348°
2026-04-28 02:27 23.09807 -78.61747 18015 ft 232 kts 348°
2026-04-28 02:27 23.11387 -78.62056 18015 ft 229 kts 348°
2026-04-28 02:27 23.12950 -78.62364 18011 ft 226 kts 347°
2026-04-28 02:27 23.14488 -78.62668 18004 ft 223 kts 348°
2026-04-28 02:28 23.16011 -78.62966 18004 ft 221 kts 347°
2026-04-28 02:28 23.17518 -78.63262 18005 ft 220 kts 348°
2026-04-28 02:28 23.19018 -78.63556 18002 ft 219 kts 347°
2026-04-28 02:28 23.20506 -78.63850 18074 ft 215 kts 347°
2026-04-28 02:29 23.21959 -78.64137 18065 ft 215 kts 347°
2026-04-28 02:29 23.23430 -78.64426 18067 ft 215 kts 347°
2026-04-28 02:29 23.24904 -78.64716 18068 ft 215 kts 347°
2026-04-28 02:29 23.26380 -78.65007 18072 ft 216 kts 347°
2026-04-28 02:30 23.27870 -78.65300 18070 ft 216 kts 347°
2026-04-28 02:30 23.29329 -78.65587 18067 ft 216 kts 347°
2026-04-28 02:30 23.30812 -78.65879 18067 ft 216 kts 347°
2026-04-28 02:30 23.32291 -78.66171 18069 ft 216 kts 347°
2026-04-28 02:31 23.33768 -78.66462 18069 ft 216 kts 347°
2026-04-28 02:31 23.35246 -78.66753 18072 ft 216 kts 347°
2026-04-28 02:31 23.36729 -78.67046 18071 ft 216 kts 347°
2026-04-28 02:31 23.38206 -78.67337 18072 ft 216 kts 347°
2026-04-28 02:32 23.39690 -78.67630 18072 ft 216 kts 347°
2026-04-28 02:32 23.41172 -78.67922 18075 ft 218 kts 347°
2026-04-28 02:32 23.42670 -78.68219 18076 ft 219 kts 347°
2026-04-28 02:32 23.44168 -78.68514 18078 ft 219 kts 347°
2026-04-28 02:33 23.45673 -78.68811 18077 ft 220 kts 347°
2026-04-28 02:33 23.47178 -78.69108 18081 ft 220 kts 347°
2026-04-28 02:33 23.48685 -78.69406 18083 ft 220 kts 347°
2026-04-28 02:33 23.50197 -78.69705 18082 ft 221 kts 347°
2026-04-28 02:34 23.51711 -78.70005 18086 ft 221 kts 347°
2026-04-28 02:34 23.53204 -78.70300 18087 ft 221 kts 347°
2026-04-28 02:34 23.54723 -78.70600 18089 ft 221 kts 347°
2026-04-28 02:34 23.56237 -78.70899 18085 ft 221 kts 347°
2026-04-28 02:35 23.57754 -78.71199 18090 ft 221 kts 347°
2026-04-28 02:35 23.59267 -78.71499 18087 ft 221 kts 347°
2026-04-28 02:35 23.60789 -78.71800 18088 ft 222 kts 347°
2026-04-28 02:35 23.62301 -78.72099 18091 ft 221 kts 347°
2026-04-28 02:36 23.63807 -78.72456 18083 ft 220 kts 336°
2026-04-28 02:36 23.65054 -78.73377 18091 ft 217 kts 317°
2026-04-28 02:36 23.66161 -78.74495 18090 ft 217 kts 316°
2026-04-28 02:36 23.67279 -78.75603 18089 ft 217 kts 317°
2026-04-28 02:37 23.68419 -78.76690 18088 ft 218 kts 317°
2026-04-28 02:37 23.69559 -78.77773 18082 ft 218 kts 317°
2026-04-28 02:37 23.70697 -78.78860 18087 ft 217 kts 317°
2026-04-28 02:37 23.71798 -78.79914 18085 ft 217 kts 317°
2026-04-28 02:38 23.72960 -78.81027 18083 ft 217 kts 317°
2026-04-28 02:38 23.74094 -78.82111 18090 ft 217 kts 317°
2026-04-28 02:38 23.75230 -78.83199 18088 ft 217 kts 317°
2026-04-28 02:38 23.76362 -78.84283 18089 ft 217 kts 317°
2026-04-28 02:39 23.77503 -78.85375 18087 ft 217 kts 317°
2026-04-28 02:39 23.78641 -78.86465 18093 ft 217 kts 317°
2026-04-28 02:39 23.79775 -78.87553 18089 ft 217 kts 317°
2026-04-28 02:39 23.80912 -78.88642 18087 ft 217 kts 317°
2026-04-28 02:40 23.82045 -78.89728 18095 ft 217 kts 317°
2026-04-28 02:40 23.83167 -78.90804 18095 ft 217 kts 317°
2026-04-28 02:40 23.84317 -78.91907 18091 ft 217 kts 317°
2026-04-28 02:40 23.85435 -78.92979 18087 ft 217 kts 317°
2026-04-28 02:41 23.86567 -78.94066 18091 ft 217 kts 317°
2026-04-28 02:41 23.87703 -78.95156 18089 ft 217 kts 317°
2026-04-28 02:41 23.88833 -78.96240 18089 ft 217 kts 317°
2026-04-28 02:41 23.89963 -78.97326 18088 ft 217 kts 317°
2026-04-28 02:42 23.91100 -78.98418 18087 ft 216 kts 317°
2026-04-28 02:42 23.92232 -78.99506 18092 ft 216 kts 317°
2026-04-28 02:42 23.93362 -79.00590 18092 ft 216 kts 317°
2026-04-28 02:42 23.94494 -79.01679 18094 ft 216 kts 317°
2026-04-28 02:43 23.95623 -79.02764 18093 ft 216 kts 317°
2026-04-28 02:43 23.96751 -79.03849 18090 ft 216 kts 318°
2026-04-28 02:43 23.97870 -79.04926 18090 ft 216 kts 318°
2026-04-28 02:43 23.98998 -79.06011 18091 ft 216 kts 318°
2026-04-28 02:44 24.00196 -79.07007 18087 ft 217 kts 331°
2026-04-28 02:44 24.01615 -79.07580 18091 ft 218 kts 340°
2026-04-28 02:44 24.03050 -79.08109 18092 ft 218 kts 339°
2026-04-28 02:44 24.04488 -79.08648 18093 ft 218 kts 339°
2026-04-28 02:45 24.05922 -79.09182 18094 ft 218 kts 339°
2026-04-28 02:45 24.07363 -79.09717 18091 ft 218 kts 339°
2026-04-28 02:45 24.08797 -79.10251 18091 ft 218 kts 339°
2026-04-28 02:45 24.10218 -79.10780 18094 ft 218 kts 339°
2026-04-28 02:46 24.11654 -79.11314 18094 ft 218 kts 339°
2026-04-28 02:46 24.13091 -79.11849 18089 ft 218 kts 339°
2026-04-28 02:46 24.14548 -79.12392 18092 ft 218 kts 339°
2026-04-28 02:46 24.15971 -79.12923 18092 ft 218 kts 339°
2026-04-28 02:47 24.17408 -79.13458 18096 ft 218 kts 339°
2026-04-28 02:47 24.18847 -79.13994 18091 ft 219 kts 339°
2026-04-28 02:47 24.19822 -79.14357 18092 ft 219 kts 339°
2026-04-28 02:47 24.21260 -79.14894 18091 ft 219 kts 340°
2026-04-28 02:48 24.22682 -79.15423 18090 ft 219 kts 340°
2026-04-28 02:48 24.24118 -79.15960 18095 ft 219 kts 340°
2026-04-28 02:48 24.25562 -79.16498 18092 ft 219 kts 340°
2026-04-28 02:48 24.27003 -79.17036 18092 ft 219 kts 340°
2026-04-28 02:49 24.28442 -79.17573 18090 ft 218 kts 339°
2026-04-28 02:49 24.29885 -79.18112 18091 ft 218 kts 340°
2026-04-28 02:49 24.31328 -79.18650 18091 ft 219 kts 340°
2026-04-28 02:49 24.32749 -79.19181 18091 ft 219 kts 340°
2026-04-28 02:50 24.34190 -79.19720 18091 ft 219 kts 340°
2026-04-28 02:50 24.35636 -79.20260 18095 ft 219 kts 340°
2026-04-28 02:50 24.37079 -79.20799 18096 ft 219 kts 340°
2026-04-28 02:50 24.38521 -79.21338 18096 ft 219 kts 340°
2026-04-28 02:51 24.39969 -79.21880 18096 ft 219 kts 340°
2026-04-28 02:51 24.41411 -79.22419 18094 ft 219 kts 340°
2026-04-28 02:51 24.42855 -79.22960 18096 ft 219 kts 340°
2026-04-28 02:51 24.44301 -79.23501 18095 ft 219 kts 340°
2026-04-28 02:52 24.45748 -79.24043 18095 ft 220 kts 340°
2026-04-28 02:52 24.47197 -79.24585 18096 ft 220 kts 340°
2026-04-28 02:52 24.48643 -79.25127 18097 ft 220 kts 340°
2026-04-28 02:52 24.50071 -79.25662 18093 ft 220 kts 340°
2026-04-28 02:53 24.51518 -79.26204 18096 ft 220 kts 340°
2026-04-28 02:53 24.52966 -79.26747 18095 ft 220 kts 340°
2026-04-28 02:53 24.54416 -79.27290 18093 ft 220 kts 340°
2026-04-28 02:53 24.55866 -79.27834 18096 ft 220 kts 340°
2026-04-28 02:54 24.57313 -79.28377 18094 ft 220 kts 340°
2026-04-28 02:54 24.58763 -79.28921 18094 ft 220 kts 340°
2026-04-28 02:54 24.60213 -79.29465 18096 ft 220 kts 340°
2026-04-28 02:54 24.61665 -79.30010 18093 ft 220 kts 340°
2026-04-28 02:55 24.63118 -79.30556 18096 ft 220 kts 340°
2026-04-28 02:55 24.64568 -79.31100 18096 ft 220 kts 340°
2026-04-28 02:55 24.66020 -79.31646 18093 ft 220 kts 340°
2026-04-28 02:55 24.67473 -79.32192 18096 ft 220 kts 340°
2026-04-28 02:56 24.68927 -79.32738 18096 ft 220 kts 340°
2026-04-28 02:56 24.70362 -79.33278 18095 ft 220 kts 340°
2026-04-28 02:56 24.71812 -79.33823 18097 ft 220 kts 340°
2026-04-28 02:56 24.73266 -79.34369 18093 ft 220 kts 340°
2026-04-28 02:57 24.74718 -79.34915 18093 ft 220 kts 340°
2026-04-28 02:57 24.76165 -79.35460 18097 ft 220 kts 340°
2026-04-28 02:57 24.77619 -79.36007 18094 ft 220 kts 340°
2026-04-28 02:57 24.79069 -79.36553 18095 ft 220 kts 340°
2026-04-28 02:58 24.80508 -79.37095 18098 ft 220 kts 340°
2026-04-28 02:58 24.81958 -79.37641 18094 ft 220 kts 340°
2026-04-28 02:58 24.83404 -79.38186 18097 ft 220 kts 340°
2026-04-28 02:58 24.84849 -79.38731 18092 ft 220 kts 340°
2026-04-28 02:59 24.86299 -79.39277 18096 ft 220 kts 340°
2026-04-28 02:59 24.87745 -79.39823 18095 ft 219 kts 340°
2026-04-28 02:59 24.89190 -79.40368 18098 ft 219 kts 340°
2026-04-28 02:59 24.90637 -79.40913 18097 ft 219 kts 340°
2026-04-28 03:00 24.92079 -79.41457 18098 ft 219 kts 340°
2026-04-28 03:00 24.93526 -79.42003 18091 ft 219 kts 340°
2026-04-28 03:00 24.94967 -79.42548 18092 ft 219 kts 340°
2026-04-28 03:00 24.96407 -79.43092 18093 ft 219 kts 340°
2026-04-28 03:01 24.97851 -79.43637 18092 ft 219 kts 340°
2026-04-28 03:01 24.99293 -79.44182 18093 ft 219 kts 340°
2026-04-28 03:01 25.00714 -79.44719 18098 ft 219 kts 340°
2026-04-28 03:01 25.02153 -79.45262 18099 ft 219 kts 340°
2026-04-28 03:02 25.03598 -79.45808 18093 ft 219 kts 340°
2026-04-28 03:02 25.05035 -79.46352 18098 ft 219 kts 340°
2026-04-28 03:02 25.06472 -79.46896 18095 ft 218 kts 340°
2026-04-28 03:02 25.07909 -79.47439 18096 ft 218 kts 340°
2026-04-28 03:03 25.09350 -79.47985 18099 ft 218 kts 340°
2026-04-28 03:03 25.10788 -79.48529 18097 ft 218 kts 340°
2026-04-28 03:03 25.12224 -79.49073 18102 ft 218 kts 340°
2026-04-28 03:03 25.13663 -79.49617 18105 ft 218 kts 340°
2026-04-28 03:04 25.15094 -79.50160 18103 ft 218 kts 340°
2026-04-28 03:04 25.16531 -79.50704 18103 ft 218 kts 340°
2026-04-28 03:04 25.17962 -79.51247 18101 ft 218 kts 340°
2026-04-28 03:04 25.19395 -79.51790 18099 ft 218 kts 340°
2026-04-28 03:05 25.20830 -79.52334 18101 ft 218 kts 340°
2026-04-28 03:05 25.22246 -79.52871 18102 ft 218 kts 340°
2026-04-28 03:05 25.23677 -79.53415 18103 ft 217 kts 340°
2026-04-28 03:05 25.25128 -79.53965 18100 ft 217 kts 340°
2026-04-28 03:06 25.26540 -79.54501 18103 ft 217 kts 340°
2026-04-28 03:06 25.27973 -79.55045 18104 ft 217 kts 340°
2026-04-28 03:06 25.29398 -79.55587 18104 ft 217 kts 340°
2026-04-28 03:06 25.30828 -79.56130 18103 ft 217 kts 340°
2026-04-28 03:07 25.32261 -79.56674 18103 ft 217 kts 340°
2026-04-28 03:07 25.33692 -79.57218 18105 ft 217 kts 340°
2026-04-28 03:07 25.35116 -79.57760 18104 ft 217 kts 340°
2026-04-28 03:07 25.36546 -79.58303 18100 ft 217 kts 340°
2026-04-28 03:08 25.37971 -79.58845 18103 ft 217 kts 340°
2026-04-28 03:08 25.39384 -79.59382 18103 ft 217 kts 340°
2026-04-28 03:08 25.40811 -79.59926 18102 ft 217 kts 340°
2026-04-28 03:08 25.42235 -79.60468 18104 ft 217 kts 340°
2026-04-28 03:09 25.43663 -79.61011 18104 ft 217 kts 340°
2026-04-28 03:09 25.45094 -79.61556 18102 ft 217 kts 340°
2026-04-28 03:09 25.46522 -79.62100 18105 ft 217 kts 341°
2026-04-28 03:09 25.47953 -79.62645 18105 ft 217 kts 341°
2026-04-28 03:10 25.49382 -79.63190 18105 ft 217 kts 341°
2026-04-28 03:10 25.50812 -79.63735 18102 ft 217 kts 341°
2026-04-28 03:10 25.52245 -79.64281 18104 ft 217 kts 341°
2026-04-28 03:10 25.53671 -79.64825 18106 ft 217 kts 341°
2026-04-28 03:11 25.55104 -79.65372 18105 ft 217 kts 341°
2026-04-28 03:11 25.56533 -79.65917 18104 ft 217 kts 341°
2026-04-28 03:11 25.57969 -79.66465 18106 ft 217 kts 341°
2026-04-28 03:11 25.59400 -79.67011 18105 ft 217 kts 341°
2026-04-28 03:12 25.60829 -79.67557 18102 ft 217 kts 341°
2026-04-28 03:12 25.62257 -79.68103 18104 ft 217 kts 341°
2026-04-28 03:12 25.63686 -79.68648 18105 ft 217 kts 341°
2026-04-28 03:12 25.65096 -79.69188 18106 ft 217 kts 341°
2026-04-28 03:13 25.66522 -79.69733 18106 ft 217 kts 341°
2026-04-28 03:13 25.67951 -79.70279 18108 ft 217 kts 341°
2026-04-28 03:13 25.69382 -79.70826 18109 ft 217 kts 341°
2026-04-28 03:13 25.70804 -79.71370 18107 ft 217 kts 341°
2026-04-28 03:14 25.72233 -79.71917 18110 ft 217 kts 341°
2026-04-28 03:14 25.73663 -79.72465 18105 ft 217 kts 341°
2026-04-28 03:14 25.75088 -79.73010 18104 ft 217 kts 341°
2026-04-28 03:14 25.76515 -79.73557 18102 ft 217 kts 341°
2026-04-28 03:15 25.77940 -79.74102 18105 ft 217 kts 341°
2026-04-28 03:15 25.79369 -79.74650 18106 ft 217 kts 341°
2026-04-28 03:15 25.80796 -79.75196 18106 ft 217 kts 341°
2026-04-28 03:15 25.82221 -79.75742 18108 ft 217 kts 341°
2026-04-28 03:16 25.83645 -79.76289 18107 ft 217 kts 341°
2026-04-28 03:16 25.85073 -79.76835 18109 ft 217 kts 341°
2026-04-28 03:16 25.86501 -79.77382 18107 ft 217 kts 341°
2026-04-28 03:16 25.87926 -79.77929 18110 ft 217 kts 341°
2026-04-28 03:17 25.89342 -79.78473 18107 ft 217 kts 341°
2026-04-28 03:17 25.92201 -79.79570 18106 ft 217 kts 341°
2026-04-28 03:17 25.93626 -79.80119 18108 ft 217 kts 341°
2026-04-28 03:18 25.95040 -79.80661 18111 ft 217 kts 341°
2026-04-28 03:18 25.96485 -79.81216 18111 ft 217 kts 341°
2026-04-28 03:18 25.97909 -79.81764 18111 ft 217 kts 341°
2026-04-28 03:18 25.99317 -79.82305 18111 ft 217 kts 341°
2026-04-28 03:19 26.00741 -79.82853 18111 ft 217 kts 341°
2026-04-28 03:19 26.02167 -79.83401 18110 ft 217 kts 341°
2026-04-28 03:19 26.03590 -79.83950 18109 ft 217 kts 341°
2026-04-28 03:19 26.05016 -79.84498 18110 ft 216 kts 341°
2026-04-28 03:20 26.06438 -79.85046 18115 ft 216 kts 341°
2026-04-28 03:20 26.07865 -79.85595 18113 ft 216 kts 341°
2026-04-28 03:20 26.09290 -79.86144 18114 ft 216 kts 341°
2026-04-28 03:20 26.10713 -79.86693 18112 ft 217 kts 341°
2026-04-28 03:21 26.12134 -79.87240 18119 ft 217 kts 341°
2026-04-28 03:21 26.13559 -79.87789 18117 ft 217 kts 341°
2026-04-28 03:21 26.14984 -79.88339 18119 ft 217 kts 341°
2026-04-28 03:21 26.16412 -79.88890 18120 ft 217 kts 341°
2026-04-28 03:22 26.17840 -79.89440 18120 ft 217 kts 341°
2026-04-28 03:22 26.19246 -79.89983 18123 ft 217 kts 341°
2026-04-28 03:22 26.20672 -79.90534 18120 ft 217 kts 341°
2026-04-28 03:22 26.22115 -79.91090 18121 ft 217 kts 341°
2026-04-28 03:23 26.23521 -79.91634 18121 ft 216 kts 341°
2026-04-28 03:23 26.24942 -79.92182 18120 ft 216 kts 342°
2026-04-28 03:23 26.26369 -79.92734 18121 ft 216 kts 341°
2026-04-28 03:23 26.27792 -79.93284 18122 ft 216 kts 342°
2026-04-28 03:24 26.29210 -79.93833 18122 ft 216 kts 342°
2026-04-28 03:24 26.30635 -79.94383 18122 ft 216 kts 342°
2026-04-28 03:24 26.32055 -79.94932 18131 ft 216 kts 342°
2026-04-28 03:24 26.33479 -79.95483 18131 ft 217 kts 342°
2026-04-28 03:25 26.34901 -79.96034 18131 ft 217 kts 341°
2026-04-28 03:25 26.36327 -79.96585 18133 ft 217 kts 342°
2026-04-28 03:25 26.37755 -79.97139 18134 ft 217 kts 341°
2026-04-28 03:25 26.39178 -79.97690 18135 ft 217 kts 341°
2026-04-28 03:26 26.40606 -79.98243 18136 ft 217 kts 342°
2026-04-28 03:26 26.42014 -79.98788 18135 ft 217 kts 341°
2026-04-28 03:26 26.43446 -79.99343 18135 ft 217 kts 341°
2026-04-28 03:26 26.44871 -79.99896 18134 ft 217 kts 342°
2026-04-28 03:27 26.46300 -80.00450 18134 ft 217 kts 341°
2026-04-28 03:27 26.47728 -80.01004 18134 ft 217 kts 342°
2026-04-28 03:27 26.49164 -80.01561 18143 ft 217 kts 341°
2026-04-28 03:27 26.50591 -80.02115 18144 ft 217 kts 342°
2026-04-28 03:28 26.52018 -80.02669 18143 ft 217 kts 342°
2026-04-28 03:28 26.53447 -80.03224 18143 ft 217 kts 342°
2026-04-28 03:28 26.54878 -80.03780 18143 ft 217 kts 341°
2026-04-28 03:28 26.56303 -80.04334 18144 ft 217 kts 342°
2026-04-28 03:29 26.57735 -80.04890 18146 ft 218 kts 342°
2026-04-28 03:29 26.59163 -80.05445 18142 ft 218 kts 341°
2026-04-28 03:29 26.60599 -80.06004 18144 ft 218 kts 342°
2026-04-28 03:29 26.62009 -80.06552 18144 ft 218 kts 342°
2026-04-28 03:30 26.63442 -80.07110 18144 ft 218 kts 341°
2026-04-28 03:30 26.64871 -80.07666 18135 ft 218 kts 342°
2026-04-28 03:30 26.66307 -80.08225 18136 ft 218 kts 342°
2026-04-28 03:30 26.67739 -80.08783 18138 ft 218 kts 342°
2026-04-28 03:31 26.69178 -80.09343 18133 ft 218 kts 342°
2026-04-28 03:31 26.70606 -80.09899 18134 ft 218 kts 342°
2026-04-28 03:31 26.72046 -80.10461 18136 ft 218 kts 342°
2026-04-28 03:31 26.73479 -80.11020 18139 ft 218 kts 341°
2026-04-28 03:32 26.74433 -80.11391 18134 ft 218 kts 342°
2026-04-28 03:32 26.75870 -80.11951 18137 ft 218 kts 341°
2026-04-28 03:32 26.77298 -80.12509 18136 ft 218 kts 342°
2026-04-28 03:32 26.78739 -80.13071 18133 ft 218 kts 342°
2026-04-28 03:33 26.80172 -80.13630 18133 ft 218 kts 342°
2026-04-28 03:33 26.81606 -80.14190 18133 ft 218 kts 342°
2026-04-28 03:33 26.83046 -80.14753 18131 ft 219 kts 342°
2026-04-28 03:33 26.84480 -80.15313 18132 ft 219 kts 342°
2026-04-28 03:34 26.85917 -80.15874 18131 ft 219 kts 341°
2026-04-28 03:34 26.87351 -80.16435 18131 ft 219 kts 342°
2026-04-28 03:34 26.88793 -80.16998 18129 ft 219 kts 342°
2026-04-28 03:34 26.90234 -80.17562 18125 ft 219 kts 341°
2026-04-28 03:35 26.91651 -80.18116 18127 ft 219 kts 342°
2026-04-28 03:35 26.93113 -80.18688 18131 ft 219 kts 342°
2026-04-28 03:35 26.94553 -80.19251 18130 ft 219 kts 342°
2026-04-28 03:35 26.95974 -80.19808 18130 ft 219 kts 342°
2026-04-28 03:36 26.97412 -80.20370 18130 ft 219 kts 342°
2026-04-28 03:36 26.98853 -80.20935 18132 ft 219 kts 342°
2026-04-28 03:36 27.00293 -80.21499 18132 ft 219 kts 342°
2026-04-28 03:36 27.01731 -80.22063 18131 ft 219 kts 342°
2026-04-28 03:37 27.03160 -80.22623 18133 ft 219 kts 342°
2026-04-28 03:37 27.04604 -80.23189 18135 ft 219 kts 342°
2026-04-28 03:37 27.06046 -80.23755 18134 ft 219 kts 342°
2026-04-28 03:37 27.07489 -80.24320 18137 ft 219 kts 342°
2026-04-28 03:38 27.08927 -80.24885 18136 ft 219 kts 342°
2026-04-28 03:38 27.10348 -80.25443 18134 ft 219 kts 342°
2026-04-28 03:38 27.11788 -80.26008 18136 ft 219 kts 342°
2026-04-28 03:38 27.13226 -80.26573 18135 ft 219 kts 342°
2026-04-28 03:39 27.14666 -80.27138 18134 ft 219 kts 342°
2026-04-28 03:39 27.16105 -80.27704 18133 ft 219 kts 342°
2026-04-28 03:39 27.17538 -80.28267 18135 ft 219 kts 342°
2026-04-28 03:39 27.18982 -80.28835 18137 ft 219 kts 342°
2026-04-28 03:40 27.20420 -80.29401 18134 ft 219 kts 342°
2026-04-28 03:40 27.21861 -80.29967 18135 ft 219 kts 342°
2026-04-28 03:40 27.23299 -80.30533 18134 ft 219 kts 342°
2026-04-28 03:40 27.24733 -80.31098 18136 ft 219 kts 342°
2026-04-28 03:41 27.26176 -80.31665 18135 ft 219 kts 342°
2026-04-28 03:41 27.27593 -80.32224 18133 ft 219 kts 342°
2026-04-28 03:41 27.29034 -80.32791 18136 ft 219 kts 342°
2026-04-28 03:41 27.30464 -80.33355 18132 ft 219 kts 342°
2026-04-28 03:42 27.31904 -80.33922 18133 ft 219 kts 342°
2026-04-28 03:42 27.33345 -80.34490 18137 ft 219 kts 342°
2026-04-28 03:42 27.34782 -80.35057 18137 ft 219 kts 342°
2026-04-28 03:42 27.36217 -80.35623 18142 ft 219 kts 342°
2026-04-28 03:43 27.37654 -80.36190 18142 ft 219 kts 342°
2026-04-28 03:43 27.39088 -80.36756 18143 ft 219 kts 342°
2026-04-28 03:43 27.40524 -80.37323 18142 ft 219 kts 342°
2026-04-28 03:43 27.41961 -80.37890 18146 ft 219 kts 342°
2026-04-28 03:44 27.43379 -80.38451 18143 ft 219 kts 342°
2026-04-28 03:44 27.44828 -80.39023 18144 ft 219 kts 342°
2026-04-28 03:44 27.46246 -80.39583 18144 ft 218 kts 342°
2026-04-28 03:44 27.47680 -80.40150 18143 ft 218 kts 342°
2026-04-28 03:45 27.49118 -80.40719 18143 ft 218 kts 342°
2026-04-28 03:45 27.50551 -80.41286 18144 ft 218 kts 342°
2026-04-28 03:45 27.51985 -80.41853 18144 ft 218 kts 342°
2026-04-28 03:45 27.53422 -80.42422 18144 ft 218 kts 342°
2026-04-28 03:46 27.54855 -80.42989 18143 ft 218 kts 342°
2026-04-28 03:46 27.56292 -80.43558 18144 ft 218 kts 342°
2026-04-28 03:46 27.57724 -80.44126 18142 ft 218 kts 342°
2026-04-28 03:46 27.59155 -80.44692 18140 ft 218 kts 342°
2026-04-28 03:47 27.60593 -80.45262 18144 ft 218 kts 342°
2026-04-28 03:47 27.62027 -80.45831 18140 ft 218 kts 342°
2026-04-28 03:47 27.63458 -80.46399 18142 ft 218 kts 342°
2026-04-28 03:47 27.64895 -80.46968 18144 ft 218 kts 342°
2026-04-28 03:48 27.66332 -80.47538 18141 ft 219 kts 342°
2026-04-28 03:48 27.67761 -80.48105 18141 ft 219 kts 342°
2026-04-28 03:48 27.69197 -80.48675 18141 ft 219 kts 342°
2026-04-28 03:48 27.70632 -80.49246 18143 ft 218 kts 342°
2026-04-28 03:49 27.72065 -80.49815 18144 ft 218 kts 342°
2026-04-28 03:49 27.73502 -80.50382 18142 ft 218 kts 342°
2026-04-28 03:49 27.74944 -80.50922 18139 ft 218 kts 343°
2026-04-28 03:49 27.76384 -80.51458 18140 ft 218 kts 343°
2026-04-28 03:50 27.77828 -80.52002 18139 ft 218 kts 343°
2026-04-28 03:50 27.79267 -80.52546 18138 ft 218 kts 343°
2026-04-28 03:50 27.80704 -80.53089 18136 ft 218 kts 342°
2026-04-28 03:50 27.82147 -80.53634 18136 ft 218 kts 342°
2026-04-28 03:51 27.83586 -80.54178 18136 ft 218 kts 342°
2026-04-28 03:51 27.85023 -80.54720 18136 ft 218 kts 342°
2026-04-28 03:51 27.86460 -80.55264 18135 ft 218 kts 342°
2026-04-28 03:51 27.87903 -80.55809 18142 ft 218 kts 342°
2026-04-28 03:52 27.89342 -80.56354 18147 ft 218 kts 342°
2026-04-28 03:52 27.90780 -80.56898 18147 ft 218 kts 342°
2026-04-28 03:52 27.92221 -80.57443 18149 ft 218 kts 342°
2026-04-28 03:52 27.93657 -80.57986 18153 ft 218 kts 342°
2026-04-28 03:53 27.95095 -80.58531 18155 ft 218 kts 342°
2026-04-28 03:53 27.96518 -80.59070 18153 ft 218 kts 342°
2026-04-28 03:53 27.97954 -80.59614 18158 ft 218 kts 342°
2026-04-28 03:53 27.99391 -80.60158 18156 ft 218 kts 342°
2026-04-28 03:54 28.00829 -80.60704 18160 ft 218 kts 342°
2026-04-28 03:54 28.02262 -80.61247 18162 ft 218 kts 342°
2026-04-28 03:54 28.03701 -80.61792 18161 ft 218 kts 342°
2026-04-28 03:54 28.05136 -80.62337 18161 ft 218 kts 342°
2026-04-28 03:55 28.06578 -80.62884 18162 ft 218 kts 342°
2026-04-28 03:55 28.08011 -80.63428 18162 ft 217 kts 342°
2026-04-28 03:55 28.09449 -80.63974 18162 ft 217 kts 342°
2026-04-28 03:55 28.10865 -80.64512 18162 ft 217 kts 342°
2026-04-28 03:56 28.12299 -80.65057 18162 ft 217 kts 342°
2026-04-28 03:56 28.13725 -80.65599 18159 ft 217 kts 342°
2026-04-28 03:56 28.15166 -80.66146 18158 ft 217 kts 342°
2026-04-28 03:56 28.16603 -80.66693 18160 ft 217 kts 342°
2026-04-28 03:57 28.18038 -80.67238 18164 ft 217 kts 342°
2026-04-28 03:57 28.19470 -80.67784 18124 ft 217 kts 342°
2026-04-28 03:57 28.20904 -80.68329 18124 ft 217 kts 342°
2026-04-28 03:57 28.22336 -80.68874 18124 ft 217 kts 342°
2026-04-28 03:58 28.23768 -80.69419 18124 ft 217 kts 342°
2026-04-28 03:58 28.25204 -80.69966 18125 ft 217 kts 342°
2026-04-28 03:58 28.26630 -80.70510 18126 ft 217 kts 342°
2026-04-28 03:58 28.28069 -80.71058 18126 ft 217 kts 342°
2026-04-28 03:59 28.29498 -80.71603 18126 ft 217 kts 342°
2026-04-28 03:59 28.30914 -80.72143 18129 ft 217 kts 342°
2026-04-28 03:59 28.32348 -80.72689 18124 ft 217 kts 342°
2026-04-28 03:59 28.33779 -80.73236 18125 ft 217 kts 342°
2026-04-28 04:00 28.35207 -80.73781 18127 ft 217 kts 342°
2026-04-28 04:00 28.36637 -80.74326 18110 ft 216 kts 342°
2026-04-28 04:00 28.38069 -80.74873 18110 ft 216 kts 342°
2026-04-28 04:00 28.39486 -80.75415 18110 ft 216 kts 342°
2026-04-28 04:01 28.40915 -80.75961 18109 ft 216 kts 342°
2026-04-28 04:01 28.42338 -80.76504 18118 ft 216 kts 342°
2026-04-28 04:01 28.43764 -80.77050 18120 ft 216 kts 342°
2026-04-28 04:01 28.45172 -80.77588 18142 ft 216 kts 342°
2026-04-28 04:02 28.46613 -80.78139 18136 ft 216 kts 342°
2026-04-28 04:02 28.48036 -80.78684 18142 ft 216 kts 342°
2026-04-28 04:02 28.49444 -80.79222 18143 ft 216 kts 342°
2026-04-28 04:02 28.50868 -80.79768 18143 ft 216 kts 342°
2026-04-28 04:03 28.52290 -80.80312 18144 ft 216 kts 342°
2026-04-28 04:03 28.53714 -80.80858 18144 ft 216 kts 342°
2026-04-28 04:03 28.55140 -80.81404 18146 ft 216 kts 342°
2026-04-28 04:03 28.56561 -80.81949 18145 ft 216 kts 342°
2026-04-28 04:04 28.57984 -80.82494 18146 ft 216 kts 342°
2026-04-28 04:04 28.59411 -80.83042 18145 ft 216 kts 342°
2026-04-28 04:04 28.60832 -80.83587 18142 ft 216 kts 342°
2026-04-28 04:04 28.62256 -80.84133 18143 ft 216 kts 342°
2026-04-28 04:05 28.63679 -80.84679 18143 ft 216 kts 342°
2026-04-28 04:05 28.65102 -80.85225 18149 ft 216 kts 342°
2026-04-28 04:05 28.66525 -80.85772 18148 ft 215 kts 342°
2026-04-28 04:05 28.67944 -80.86317 18150 ft 215 kts 342°
2026-04-28 04:06 28.69364 -80.86872 18149 ft 215 kts 339°
2026-04-28 04:06 28.70752 -80.87499 18147 ft 215 kts 340°
2026-04-28 04:06 28.72156 -80.88101 18148 ft 215 kts 340°
2026-04-28 04:06 28.73551 -80.88704 18149 ft 215 kts 339°
2026-04-28 04:07 28.74948 -80.89315 18152 ft 215 kts 339°
2026-04-28 04:07 28.76345 -80.89927 18150 ft 215 kts 339°
2026-04-28 04:07 28.77721 -80.90531 18154 ft 215 kts 339°
2026-04-28 04:07 28.79114 -80.91141 18151 ft 215 kts 339°
2026-04-28 04:08 28.80510 -80.91752 18147 ft 214 kts 339°
2026-04-28 04:08 28.81901 -80.92362 18161 ft 215 kts 339°
2026-04-28 04:08 28.83296 -80.92973 18163 ft 214 kts 339°
2026-04-28 04:08 28.84692 -80.93586 18162 ft 214 kts 339°
2026-04-28 04:09 28.86084 -80.94196 18164 ft 214 kts 339°
2026-04-28 04:09 28.87478 -80.94808 18168 ft 214 kts 339°
2026-04-28 04:09 28.88863 -80.95416 18170 ft 214 kts 339°
2026-04-28 04:09 28.90256 -80.96028 18172 ft 214 kts 339°
2026-04-28 04:10 28.91645 -80.96638 18169 ft 214 kts 339°
2026-04-28 04:10 28.93033 -80.97247 18167 ft 214 kts 339°
2026-04-28 04:10 28.94419 -80.97856 18169 ft 214 kts 339°
2026-04-28 04:10 28.95781 -80.98455 18173 ft 214 kts 339°
2026-04-28 04:11 28.97174 -80.99067 18171 ft 213 kts 339°
2026-04-28 04:11 28.98578 -80.99685 18172 ft 213 kts 339°
2026-04-28 04:11 28.99963 -81.00294 18174 ft 213 kts 339°
2026-04-28 04:11 29.01332 -81.00897 18178 ft 213 kts 339°
2026-04-28 04:12 29.02717 -81.01506 18177 ft 213 kts 339°
2026-04-28 04:12 29.04102 -81.02116 18178 ft 213 kts 339°
2026-04-28 04:12 29.05483 -81.02724 18180 ft 213 kts 339°
2026-04-28 04:12 29.06868 -81.03335 18181 ft 213 kts 339°
2026-04-28 04:13 29.08251 -81.03944 18182 ft 213 kts 339°
2026-04-28 04:13 29.09632 -81.04553 18180 ft 213 kts 339°
2026-04-28 04:13 29.11009 -81.05160 18181 ft 213 kts 339°
2026-04-28 04:13 29.12399 -81.05773 18181 ft 213 kts 339°
2026-04-28 04:14 29.13312 -81.06176 18178 ft 213 kts 339°
2026-04-28 04:14 29.14689 -81.06783 18184 ft 213 kts 339°
2026-04-28 04:14 29.16069 -81.07392 18185 ft 212 kts 339°
2026-04-28 04:14 29.17451 -81.08003 18183 ft 212 kts 339°
2026-04-28 04:15 29.18830 -81.08612 18182 ft 212 kts 339°
2026-04-28 04:15 29.20218 -81.09225 18180 ft 213 kts 339°
2026-04-28 04:15 29.22978 -81.10445 18177 ft 213 kts 339°
2026-04-28 04:16 29.24359 -81.11055 18181 ft 212 kts 339°
2026-04-28 04:16 29.25720 -81.11657 18186 ft 212 kts 339°
2026-04-28 04:16 29.27097 -81.12267 18182 ft 212 kts 339°
2026-04-28 04:16 29.28479 -81.12878 18183 ft 212 kts 339°
2026-04-28 04:17 29.29877 -81.13361 18180 ft 212 kts 352°
2026-04-28 04:17 29.31363 -81.13350 18186 ft 213 kts
2026-04-28 04:17 29.32841 -81.13291 18193 ft 212 kts
2026-04-28 04:17 29.34324 -81.13240 18195 ft 213 kts
2026-04-28 04:18 29.35801 -81.13185 18205 ft 213 kts
2026-04-28 04:18 29.37280 -81.13129 18197 ft 213 kts
2026-04-28 04:18 29.38761 -81.13073 18197 ft 213 kts
2026-04-28 04:18 29.40240 -81.13018 18200 ft 213 kts
2026-04-28 04:19 29.41716 -81.12962 18198 ft 212 kts
2026-04-28 04:19 29.43184 -81.12907 18202 ft 213 kts
2026-04-28 04:19 29.44661 -81.12851 18197 ft 213 kts
2026-04-28 04:19 29.46144 -81.12795 18196 ft 213 kts
2026-04-28 04:20 29.47623 -81.12740 18202 ft 213 kts
2026-04-28 04:20 29.49104 -81.12684 18202 ft 213 kts
2026-04-28 04:20 29.50587 -81.12628 18200 ft 213 kts
2026-04-28 04:20 29.52067 -81.12572 18204 ft 213 kts
2026-04-28 04:21 29.53548 -81.12516 18197 ft 213 kts
2026-04-28 04:21 29.55026 -81.12461 18203 ft 213 kts
2026-04-28 04:21 29.56510 -81.12405 18192 ft 213 kts
2026-04-28 04:21 29.57994 -81.12374 18194 ft 212 kts 357°
2026-04-28 04:22 29.59451 -81.12377 18203 ft 213 kts 359°
2026-04-28 04:22 29.60948 -81.12354 18198 ft 213 kts 359°
2026-04-28 04:22 29.62413 -81.12342 18194 ft 213 kts 358°
2026-04-28 04:22 29.63890 -81.12335 18195 ft 213 kts 358°
2026-04-28 04:23 29.65371 -81.12328 18192 ft 213 kts 358°
2026-04-28 04:23 29.66852 -81.12321 18196 ft 213 kts 358°
2026-04-28 04:23 29.68333 -81.12313 18193 ft 213 kts 358°
2026-04-28 04:23 29.69811 -81.12305 18194 ft 213 kts 358°
2026-04-28 04:24 29.71295 -81.12298 18191 ft 213 kts 358°
2026-04-28 04:24 29.72777 -81.12290 18192 ft 213 kts 358°
2026-04-28 04:24 29.74260 -81.12283 18191 ft 213 kts 358°
2026-04-28 04:24 29.75743 -81.12275 18197 ft 213 kts 358°
2026-04-28 04:25 29.77227 -81.12267 18199 ft 213 kts 358°
2026-04-28 04:25 29.78708 -81.12259 18199 ft 213 kts 358°
2026-04-28 04:25 29.80194 -81.12252 18201 ft 213 kts 358°
2026-04-28 04:25 29.81665 -81.12244 18203 ft 213 kts 358°
2026-04-28 04:26 29.83150 -81.12150 18202 ft 214 kts
2026-04-28 04:26 29.84633 -81.12069 18206 ft 213 kts
2026-04-28 04:26 29.86116 -81.11989 18206 ft 214 kts
2026-04-28 04:26 29.87607 -81.11901 18208 ft 214 kts
2026-04-28 04:27 29.89095 -81.11812 18208 ft 214 kts
2026-04-28 04:27 29.90582 -81.11723 18207 ft 214 kts
2026-04-28 04:27 29.92070 -81.11634 18206 ft 214 kts
2026-04-28 04:27 29.93557 -81.11546 18204 ft 214 kts
2026-04-28 04:28 29.95043 -81.11458 18207 ft 214 kts
2026-04-28 04:28 29.96512 -81.11370 18207 ft 214 kts
2026-04-28 04:28 29.98003 -81.11281 18209 ft 214 kts
2026-04-28 04:28 29.99495 -81.11192 18205 ft 214 kts
2026-04-28 04:29 30.00986 -81.11103 18205 ft 214 kts
2026-04-28 04:29 30.02476 -81.11014 18207 ft 215 kts
2026-04-28 04:29 30.03968 -81.10925 18202 ft 214 kts
2026-04-28 04:29 30.05462 -81.10836 18205 ft 214 kts
2026-04-28 04:30 30.06952 -81.10747 18203 ft 215 kts
2026-04-28 04:30 30.08426 -81.10659 18204 ft 215 kts
2026-04-28 04:30 30.09937 -81.10569 18200 ft 215 kts
2026-04-28 04:30 30.11412 -81.10481 18199 ft 215 kts
2026-04-28 04:31 30.12905 -81.10392 18201 ft 215 kts
2026-04-28 04:31 30.14396 -81.10303 18197 ft 215 kts
2026-04-28 04:31 30.15887 -81.10213 18194 ft 215 kts
2026-04-28 04:31 30.17382 -81.10124 18194 ft 215 kts
2026-04-28 04:32 30.18877 -81.10035 18195 ft 215 kts
2026-04-28 04:32 30.20370 -81.09945 18193 ft 215 kts
2026-04-28 04:32 30.21865 -81.09856 18194 ft 215 kts
2026-04-28 04:32 30.23362 -81.09766 18193 ft 215 kts
2026-04-28 04:33 30.24856 -81.09677 18195 ft 215 kts
2026-04-28 04:33 30.26348 -81.09587 18195 ft 215 kts
2026-04-28 04:33 30.27840 -81.09498 18196 ft 215 kts
2026-04-28 04:33 30.29337 -81.09408 18195 ft 215 kts
2026-04-28 04:34 30.30833 -81.09318 18200 ft 215 kts
2026-04-28 04:34 30.32331 -81.09228 18196 ft 215 kts
2026-04-28 04:34 30.33825 -81.09139 18200 ft 215 kts
2026-04-28 04:34 30.35318 -81.09049 18199 ft 215 kts
2026-04-28 04:35 30.36813 -81.08959 18199 ft 215 kts
2026-04-28 04:35 30.38310 -81.08869 18199 ft 215 kts
2026-04-28 04:35 30.39808 -81.08779 18200 ft 215 kts
2026-04-28 04:35 30.41289 -81.08690 18201 ft 215 kts
2026-04-28 04:36 30.42785 -81.08600 18201 ft 215 kts
2026-04-28 04:36 30.44285 -81.08510 18198 ft 215 kts
2026-04-28 04:36 30.45781 -81.08420 18198 ft 215 kts
2026-04-28 04:36 30.47279 -81.08330 18198 ft 215 kts
2026-04-28 04:37 30.48776 -81.08240 18195 ft 215 kts
2026-04-28 04:37 30.50269 -81.08150 18194 ft 215 kts 360°
2026-04-28 04:37 30.51767 -81.08059 18201 ft 215 kts 360°
2026-04-28 04:37 30.53266 -81.07969 18202 ft 215 kts 360°
2026-04-28 04:38 30.54744 -81.07880 18199 ft 215 kts 360°
2026-04-28 04:38 30.56243 -81.07790 18202 ft 215 kts 360°
2026-04-28 04:38 30.57736 -81.07700 18203 ft 215 kts 360°
2026-04-28 04:38 30.59233 -81.07609 18204 ft 215 kts 360°
2026-04-28 04:39 30.60722 -81.07519 18201 ft 215 kts 360°
2026-04-28 04:39 30.62217 -81.07429 18199 ft 215 kts 359°
2026-04-28 04:39 30.63693 -81.07509 18202 ft 213 kts 351°
2026-04-28 04:39 30.65168 -81.07701 18205 ft 212 kts 351°
2026-04-28 04:40 30.66634 -81.07878 18203 ft 212 kts 351°
2026-04-28 04:40 30.68106 -81.08052 18203 ft 213 kts 351°
2026-04-28 04:40 30.69577 -81.08227 18205 ft 213 kts 351°
2026-04-28 04:40 30.71048 -81.08403 18203 ft 213 kts 351°
2026-04-28 04:41 30.72504 -81.08578 18206 ft 212 kts 351°
2026-04-28 04:41 30.73996 -81.08756 18204 ft 212 kts 351°
2026-04-28 04:41 30.75466 -81.08933 18201 ft 212 kts 351°
2026-04-28 04:41 30.76917 -81.09106 18200 ft 212 kts 351°
2026-04-28 04:42 30.78400 -81.09284 18201 ft 212 kts 351°
2026-04-28 04:42 30.79857 -81.09458 18204 ft 212 kts 351°
2026-04-28 04:42 30.81322 -81.09634 18207 ft 212 kts 351°
2026-04-28 04:42 30.82791 -81.09811 18204 ft 212 kts 351°
2026-04-28 04:43 30.84258 -81.09987 18207 ft 212 kts 351°
2026-04-28 04:43 30.85729 -81.10162 18204 ft 212 kts 351°
2026-04-28 04:43 30.87193 -81.10338 18203 ft 212 kts 351°
2026-04-28 04:43 30.88661 -81.10515 18204 ft 211 kts 351°
2026-04-28 04:44 30.90126 -81.10691 18204 ft 211 kts 351°
2026-04-28 04:44 30.91590 -81.10867 18203 ft 211 kts 351°
2026-04-28 04:44 30.93053 -81.11043 18206 ft 211 kts 351°
2026-04-28 04:44 30.94516 -81.11219 18207 ft 211 kts 351°
2026-04-28 04:45 30.95976 -81.11394 18208 ft 211 kts 351°
2026-04-28 04:45 30.97421 -81.11568 18205 ft 211 kts 351°
2026-04-28 04:45 30.98897 -81.11745 18208 ft 211 kts 351°
2026-04-28 04:45 31.00339 -81.11919 18215 ft 211 kts 351°
2026-04-28 04:46 31.01800 -81.12095 18213 ft 211 kts 351°
2026-04-28 04:46 31.03258 -81.12271 18214 ft 211 kts 351°
2026-04-28 04:46 31.04720 -81.12447 18213 ft 211 kts 351°
2026-04-28 04:46 31.06177 -81.12622 18218 ft 211 kts 351°
2026-04-28 04:47 31.07638 -81.12799 18211 ft 211 kts 351°
2026-04-28 04:47 31.09095 -81.12975 18216 ft 211 kts 351°
2026-04-28 04:47 31.10563 -81.13151 18215 ft 211 kts 351°
2026-04-28 04:47 31.12024 -81.13327 18216 ft 211 kts 351°
2026-04-28 04:48 31.13482 -81.13504 18213 ft 211 kts 351°
2026-04-28 04:48 31.14948 -81.13681 18219 ft 211 kts 351°
2026-04-28 04:48 31.16402 -81.13857 18215 ft 211 kts 351°
2026-04-28 04:48 31.17863 -81.14033 18218 ft 211 kts 351°
2026-04-28 04:49 31.19320 -81.14209 18219 ft 211 kts 351°
2026-04-28 04:49 31.20782 -81.14386 18215 ft 211 kts 351°
2026-04-28 04:49 31.22246 -81.14563 18220 ft 211 kts 351°
2026-04-28 04:49 31.23703 -81.14739 18218 ft 211 kts 351°
2026-04-28 04:50 31.25165 -81.14916 18221 ft 210 kts 351°
2026-04-28 04:50 31.26592 -81.15089 18218 ft 211 kts 350°
2026-04-28 04:50 31.28081 -81.15269 18217 ft 210 kts 351°
2026-04-28 04:50 31.29536 -81.15445 18221 ft 210 kts 351°
2026-04-28 04:51 31.30976 -81.15620 18220 ft 210 kts 351°
2026-04-28 04:51 31.32437 -81.15797 18217 ft 210 kts 350°
2026-04-28 04:51 31.33891 -81.15973 18219 ft 210 kts 350°
2026-04-28 04:51 31.35345 -81.16150 18230 ft 210 kts 350°
2026-04-28 04:52 31.36799 -81.16326 18230 ft 210 kts 350°
2026-04-28 04:52 31.38257 -81.16503 18226 ft 211 kts 350°
2026-04-28 04:52 31.39712 -81.16682 18226 ft 210 kts 350°
2026-04-28 04:52 31.41176 -81.16865 18227 ft 210 kts 350°
2026-04-28 04:53 31.42630 -81.17045 18231 ft 210 kts 350°
2026-04-28 04:53 31.44087 -81.17226 18225 ft 211 kts 350°
2026-04-28 04:53 31.45529 -81.17405 18227 ft 210 kts 350°
2026-04-28 04:53 31.46983 -81.17585 18228 ft 210 kts 350°
2026-04-28 04:54 31.48441 -81.17766 18224 ft 210 kts 350°
2026-04-28 04:54 31.49899 -81.17947 18226 ft 210 kts 350°
2026-04-28 04:54 31.51354 -81.18128 18226 ft 210 kts 350°
2026-04-28 04:54 31.52806 -81.18308 18229 ft 210 kts 351°
2026-04-28 04:55 31.54271 -81.18003 18220 ft 221 kts 19°
2026-04-28 04:55 31.55597 -81.17055 18230 ft 224 kts 27°
2026-04-28 04:55 31.56899 -81.16039 18227 ft 224 kts 26°
2026-04-28 04:55 31.58234 -81.15111 18220 ft 222 kts 23°
2026-04-28 04:56 31.59583 -81.14232 18231 ft 221 kts 22°
2026-04-28 04:56 31.60909 -81.13351 18228 ft 219 kts 23°
2026-04-28 04:56 31.62211 -81.12472 18223 ft 217 kts 23°
2026-04-28 04:56 31.63537 -81.11582 18226 ft 216 kts 23°
2026-04-28 04:57 31.64822 -81.10722 18223 ft 215 kts 23°
2026-04-28 04:57 31.66139 -81.09838 18225 ft 215 kts 22°
2026-04-28 04:57 31.66999 -81.09262 18226 ft 215 kts 23°
2026-04-28 04:57 31.68717 -81.08108 18223 ft 214 kts 23°
2026-04-28 04:58 31.70013 -81.07238 18218 ft 214 kts 23°
2026-04-28 04:58 31.71310 -81.06367 18222 ft 214 kts 22°
2026-04-28 04:58 31.72163 -81.05793 18227 ft 214 kts 22°
2026-04-28 04:58 31.73454 -81.04925 18214 ft 214 kts 22°
2026-04-28 04:59 31.74752 -81.04053 18221 ft 214 kts 22°
2026-04-28 04:59 31.76046 -81.03183 18218 ft 214 kts 22°
2026-04-28 04:59 31.77337 -81.02314 18219 ft 214 kts 22°
2026-04-28 04:59 31.78630 -81.01444 18220 ft 214 kts 22°
2026-04-28 05:00 31.79926 -81.00571 18218 ft 214 kts 22°
2026-04-28 05:00 31.81217 -80.99703 18233 ft 212 kts 24°
2026-04-28 05:00 31.82499 -80.98839 18218 ft 213 kts 22°
2026-04-28 05:00 31.83786 -80.97971 18218 ft 213 kts 22°
2026-04-28 05:01 31.85063 -80.97110 18221 ft 213 kts 22°
2026-04-28 05:01 31.86367 -80.96231 18220 ft 214 kts 22°
2026-04-28 05:01 31.87618 -80.95256 18218 ft 217 kts 30°
2026-04-28 05:01 31.88782 -80.94154 18216 ft 218 kts 32°
2026-04-28 05:02 31.89967 -80.93040 18223 ft 217 kts 31°
2026-04-28 05:02 31.91171 -80.91945 18217 ft 217 kts 30°
2026-04-28 05:02 31.92353 -80.90872 18216 ft 217 kts 31°
2026-04-28 05:02 31.93563 -80.89770 18216 ft 217 kts 31°
2026-04-28 05:03 31.94737 -80.88697 18219 ft 217 kts 31°
2026-04-28 05:03 31.95930 -80.87609 18216 ft 217 kts 31°
2026-04-28 05:03 31.97122 -80.86521 18222 ft 217 kts 31°
2026-04-28 05:03 31.98314 -80.85432 18218 ft 216 kts 31°
2026-04-28 05:04 31.99500 -80.84347 18219 ft 216 kts 31°
2026-04-28 05:04 32.00695 -80.83256 18234 ft 216 kts 31°
2026-04-28 05:04 32.01881 -80.82172 18237 ft 216 kts 31°
2026-04-28 05:04 32.03069 -80.81085 18242 ft 216 kts 31°
2026-04-28 05:05 32.04256 -80.79999 18243 ft 216 kts 31°
2026-04-28 05:05 32.05439 -80.78917 18241 ft 216 kts 31°
2026-04-28 05:05 32.06627 -80.77829 18241 ft 215 kts 31°
2026-04-28 05:05 32.07806 -80.76750 18243 ft 215 kts 31°
2026-04-28 05:06 32.08990 -80.75665 18246 ft 215 kts 31°
2026-04-28 05:06 32.10180 -80.74575 18243 ft 215 kts 31°
2026-04-28 05:06 32.11359 -80.73494 18247 ft 215 kts 31°
2026-04-28 05:06 32.12541 -80.72410 18247 ft 215 kts 31°
2026-04-28 05:07 32.13709 -80.71339 18249 ft 215 kts 31°
2026-04-28 05:07 32.14885 -80.70260 18245 ft 215 kts 31°
2026-04-28 05:07 32.16066 -80.69176 18246 ft 215 kts 31°
2026-04-28 05:07 32.17245 -80.68093 18244 ft 215 kts 31°
2026-04-28 05:08 32.18423 -80.67011 18243 ft 215 kts 31°
2026-04-28 05:08 32.19599 -80.65930 18243 ft 215 kts 31°
2026-04-28 05:08 32.20782 -80.64844 18243 ft 214 kts 31°
2026-04-28 05:08 32.21956 -80.63764 18246 ft 214 kts 31°
2026-04-28 05:09 32.23137 -80.62678 18243 ft 214 kts 31°
2026-04-28 05:09 32.24298 -80.61610 18240 ft 214 kts 31°
2026-04-28 05:09 32.25491 -80.60512 18244 ft 214 kts 31°
2026-04-28 05:09 32.26646 -80.59448 18241 ft 214 kts 31°
2026-04-28 05:10 32.27833 -80.58356 18026 ft 219 kts 31°
2026-04-28 05:10 32.29059 -80.57230 17643 ft 227 kts 32°
2026-04-28 05:10 32.30324 -80.56062 17269 ft 232 kts 32°
2026-04-28 05:10 32.31597 -80.54885 16899 ft 233 kts 33°
2026-04-28 05:11 32.32882 -80.53698 16528 ft 233 kts 33°
2026-04-28 05:11 32.34158 -80.52521 16162 ft 233 kts 33°
2026-04-28 05:11 32.35428 -80.51349 15799 ft 232 kts 33°
2026-04-28 05:11 32.36685 -80.50188 15443 ft 231 kts 33°
2026-04-28 05:12 32.37966 -80.49004 15074 ft 229 kts 33°
2026-04-28 05:12 32.39223 -80.47844 14621 ft 231 kts 33°
2026-04-28 05:12 32.40477 -80.46686 14148 ft 232 kts 34°
2026-04-28 05:12 32.41752 -80.45506 13624 ft 232 kts 34°
2026-04-28 05:13 32.43024 -80.44329 13087 ft 232 kts 34°
2026-04-28 05:13 32.44298 -80.43150 12560 ft 231 kts 34°
2026-04-28 05:13 32.45563 -80.41980 12035 ft 231 kts 34°
2026-04-28 05:13 32.46829 -80.40806 11524 ft 230 kts 34°
2026-04-28 05:14 32.48087 -80.39641 11013 ft 229 kts 34°
2026-04-28 05:14 32.49342 -80.38478 10492 ft 229 kts 34°
2026-04-28 05:14 32.50589 -80.37320 9966 ft 228 kts 34°
2026-04-28 05:14 32.51838 -80.36160 9404 ft 226 kts 34°
2026-04-28 05:15 32.53051 -80.35035 8859 ft 223 kts 34°
2026-04-28 05:15 32.54272 -80.33903 8314 ft 220 kts 34°
2026-04-28 05:15 32.55469 -80.32794 7779 ft 217 kts 35°
2026-04-28 05:15 32.56653 -80.31694 7247 ft 214 kts 36°
2026-04-28 05:16 32.57820 -80.30609 6730 ft 212 kts 36°
2026-04-28 05:16 32.58963 -80.29547 6187 ft 209 kts 36°
2026-04-28 05:16 32.60099 -80.28491 5641 ft 207 kts 37°
2026-04-28 05:17 32.62350 -80.26398 4581 ft 200 kts 37°
2026-04-28 05:17 32.63436 -80.25388 4083 ft 198 kts 38°
2026-04-28 05:17 32.64500 -80.24398 3594 ft 196 kts 38°
2026-04-28 05:17 32.65578 -80.23393 3085 ft 194 kts 39°
2026-04-28 05:18 32.66622 -80.22422 2594 ft 192 kts 39°
2026-04-28 05:18 32.67666 -80.21450 2092 ft 190 kts 40°
2026-04-28 05:18 32.68668 -80.20511 1955 ft 174 kts 41°
2026-04-28 05:18 32.69290 -80.19379 1942 ft 162 kts 78°
2026-04-28 05:19 32.69044 -80.18125 1952 ft 162 kts 123°
2026-04-28 05:19 32.68585 -80.17011 2044 ft 149 kts 89°
2026-04-28 05:19 32.68806 -80.15858 2303 ft 136 kts 72°
2026-04-28 05:19 32.68997 -80.14780 2503 ft 121 kts 78°
2026-04-28 05:20 32.69087 -80.13815 1748 ft 134 kts 99°
2026-04-28 05:20 32.68867 -80.12729 1462 ft 124 kts 95°
2026-04-28 05:20 32.68989 -80.11799 1213 ft 122 kts 49°
2026-04-28 05:20 32.69525 -80.11121 1183 ft 103 kts 45°
2026-04-28 05:21 32.69882 -80.10254 1111 ft 125 kts 76°
2026-04-28 05:21 32.69991 -80.09241 1309 ft 124 kts 80°
2026-04-28 05:21 32.70116 -80.08253 1547 ft 120 kts 80°
2026-04-28 05:21 32.70237 -80.07233 1654 ft 128 kts 81°
2026-04-28 05:22 32.70325 -80.06142 1646 ft 137 kts 83°
2026-04-28 05:22 32.70385 -80.05029 1546 ft 137 kts 85°
2026-04-28 05:22 32.70382 -80.03841 1101 ft 148 kts 90°
2026-04-28 05:22 32.70437 -80.02849 689 ft 100 kts 82°
2026-04-28 05:23 32.70475 -80.02033 195 ft 95 kts 88°
2026-04-28 05:23 32.70488 -80.01283 24 ft 83 kts 89°
2026-04-28 05:23 32.70494 -80.00766 21 ft 31 kts 89°
2026-04-28 05:23 32.70409 -80.00688 22 ft 15 kts 181°
2026-04-28 05:24 32.70340 -80.00688 24 ft 13 kts 184°
2026-04-28 05:24 32.70262 -80.00683 25 ft 13 kts 183°
2026-04-28 05:24 32.70200 -80.00717 25 ft 13 kts 244°
2026-04-28 05:24 32.70143 -80.00709 25 ft 10 kts 198°
2026-04-28 05:25 32.70080 -80.00724 24 ft 5 kts 182°